EW1804 Weather Reports


Display with metric or nautical units.
time (UTC)temp
F
wind
direction
speed
MPH
gust
MPH
rain 1hr
in
rain 24hr
in
rain mn
in
humidity
%
barometer
mb
20260506073524 55 214 16.0 30.0 0.00 0.00 0.00 88 1015.5
20260506073003 55 213 15.0 29.0 0.00 0.00 0.00 88 1015.3
20260506072524 55 216 16.0 29.0 0.00 0.00 0.00 87 1015.3
20260506072003 55 216 16.0 27.0 0.00 0.00 0.00 87 1015.4
20260506071503 55 218 13.0 26.0 0.00 0.00 0.00 87 1015.4
20260506071002 55 220 11.0 22.0 0.00 0.00 0.00 87 1015.5
20260506070502 55 220 12.0 24.0 0.00 0.00 0.00 86 1015.5
20260506062503 55 222 12.0 21.0 0.00 0.00 0.00 86 1015.7
20260506062003 55 222 13.0 30.0 0.00 0.00 0.00 86 1015.7
20260506061503 55 221 14.0 30.0 0.00 0.00 0.00 86 1015.7
20260506061002 55 219 15.0 26.0 0.00 0.00 0.00 86 1015.7
20260506060524 55 216 15.0 29.0 0.00 0.00 0.00 86 1015.7
20260506051002 55 223 17.0 30.0 0.00 0.00 0.00 87 1015.3
20260506050502 55 221 17.0 30.0 0.00 0.00 0.00 87 1015.3
20260506045002 55 220 16.0 26.0 0.00 0.00 0.00 88 1015.2
20260506044502 55 218 17.0 29.0 0.00 0.00 0.00 88 1015.2
20260506044002 55 217 17.0 30.0 0.00 0.00 0.00 88 1015.3
20260506043503 55 218 17.0 30.0 0.00 0.00 0.00 88 1015.4
20260506043003 55 217 17.0 30.0 0.00 0.00 0.00 88 1015.2
20260506042503 54 217 16.0 30.0 0.00 0.00 0.00 88 1015.3
20260506042003 54 218 16.0 28.0 0.00 0.00 0.00 88 1015.3
20260506041503 54 218 16.0 29.0 0.00 0.00 0.00 88 1015.3
20260506041023 54 215 15.0 29.0 0.00 0.00 0.00 87 1015.3
20260506040502 54 212 15.0 30.0 0.00 0.00 0.00 87 1015.1
20260506040003 54 216 14.0 30.0 0.00 0.00 0.00 87 1015.2
20260506035524 54 219 14.0 28.0 0.00 0.00 0.00 88 1015.2
20260506035005 53 223 15.0 28.0 0.00 0.00 0.00 87 1015.2
20260506034503 53 222 16.0 27.0 0.00 0.00 0.00 87 1015.2
20260506034003 53 219 17.0 31.0 0.00 0.00 0.00 87 1015.1
20260506033503 53 217 17.0 31.0 0.00 0.00 0.00 88 1015.1
20260506033002 53 218 16.0 29.0 0.00 0.00 0.00 88 1015.1
20260506032503 53 220 16.0 32.0 0.00 0.00 0.00 88 1015.3
20260506032003 53 217 16.0 32.0 0.00 0.00 0.00 88 1015.1
20260506031503 53 214 16.0 28.0 0.00 0.00 0.00 88 1015.1
20260506031003 53 212 16.0 29.0 0.00 0.00 0.00 89 1015.2
20260506030502 53 211 16.0 29.0 0.00 0.00 0.00 89 1015.0
20260506030003 53 211 15.0 27.0 0.00 0.00 0.00 89 1015.2
20260506025502 53 211 16.0 27.0 0.00 0.00 0.00 89 1015.2
20260506025024 53 212 17.0 27.0 0.00 0.00 0.00 89 1015.2
20260506024503 53 212 16.0 27.0 0.00 0.00 0.00 89 1015.1
20260506024003 53 212 16.0 25.0 0.00 0.00 0.00 89 1015.1
20260506023503 53 211 16.0 26.0 0.00 0.00 0.00 89 1015.1
20260506023003 53 209 16.0 27.0 0.00 0.00 0.00 89 1015.0
20260506022503 53 209 17.0 28.0 0.00 0.00 0.00 89 1015.0
20260506022002 53 208 17.0 33.0 0.00 0.00 0.00 89 1014.9
20260506021503 53 209 18.0 33.0 0.00 0.00 0.00 89 1014.9
20260506021002 53 214 17.0 31.0 0.00 0.00 0.00 89 1015.1
20260506020503 53 215 18.0 29.0 0.00 0.00 0.00 89 1015.0
20260506020003 53 212 18.0 30.0 0.00 0.00 0.00 89 1015.1
20260506015503 53 210 16.0 30.0 0.00 0.00 0.00 89 1015.1
20260506015002 52 209 15.0 28.0 0.00 0.00 0.00 89 1015.1
20260506014524 52 211 15.0 27.0 0.00 0.00 0.00 89 1015.0
20260506014003 53 213 15.0 27.0 0.00 0.00 0.00 89 1015.0
20260506013503 53 216 16.0 26.0 0.00 0.00 0.00 89 1015.0
20260506013002 52 218 14.0 26.0 0.00 0.00 0.00 90 1014.9
20260506012502 52 215 13.0 23.0 0.00 0.00 0.00 90 1014.8
20260506012002 52 216 14.0 26.0 0.00 0.00 0.00 90 1014.8
20260506011503 52 218 15.0 26.0 0.00 0.00 0.00 90 1014.8
20260506011024 51 212 16.0 26.0 0.00 0.00 0.00 90 1014.5
20260506010503 51 209 16.0 27.0 0.00 0.00 0.00 90 1014.5
20260506010002 51 211 15.0 27.0 0.00 0.00 0.00 90 1014.4
20260506005503 51 212 14.0 24.0 0.00 0.00 0.00 89 1014.4
20260506005003 51 214 15.0 28.0 0.00 0.00 0.00 89 1014.4
20260506004503 51 214 16.0 28.0 0.00 0.00 0.00 89 1014.2
20260506004003 51 213 16.0 28.0 0.00 0.00 0.00 88 1014.1
20260506003503 52 213 14.0 28.0 0.00 0.00 0.00 88 1014.2
20260506003003 52 211 14.0 24.0 0.00 0.00 0.00 87 1014.0
20260506002503 52 212 15.0 29.0 0.00 0.00 0.00 86 1013.9
20260506002003 52 211 15.0 29.0 0.00 0.00 0.00 86 1013.8
20260506001503 52 212 15.0 25.0 0.00 0.00 0.00 85 1013.8
20260506001003 53 215 15.0 26.0 0.00 0.00 0.00 84 1013.7
20260506000503 53 216 15.0 26.0 0.00 0.00 0.00 83 1013.7
20260506000025 53 216 14.0 25.0 0.00 0.00 0.00 83 1013.7
20260505235503 54 213 14.0 24.0 0.00 0.00 0.00 81 1013.7
20260505235003 54 212 15.0 29.0 0.00 0.00 0.00 80 1013.6
20260505234504 54 212 15.0 29.0 0.00 0.00 0.00 79 1013.5
20260505234003 55 217 15.0 28.0 0.00 0.00 0.00 78 1013.4
20260505233503 55 216 15.0 29.0 0.00 0.00 0.00 77 1013.5
20260505233003 56 211 16.0 29.0 0.00 0.00 0.00 76 1013.3
20260505232524 56 209 16.0 29.0 0.00 0.00 0.00 75 1013.3
20260505232003 57 207 16.0 27.0 0.00 0.00 0.00 75 1013.1
20260505231503 57 210 15.0 27.0 0.00 0.00 0.00 74 1013.2
20260505231003 57 213 14.0 27.0 0.00 0.00 0.00 72 1013.2
20260505230506 58 214 14.0 26.0 0.00 0.00 0.00 71 1013.0
20260505230003 58 213 14.0 30.0 0.00 0.00 0.00 69 1013.0
20260505225503 59 210 14.0 30.0 0.00 0.00 0.00 68 1012.9
20260505225003 59 211 14.0 23.0 0.00 0.00 0.00 66 1013.0
20260505224503 60 209 13.0 30.0 0.00 0.00 0.00 65 1013.0
20260505224003 60 207 13.0 30.0 0.00 0.00 0.00 63 1013.0
20260505223503 61 204 14.0 24.0 0.00 0.00 0.00 62 1013.0
20260505223003 62 203 14.0 30.0 0.00 0.00 0.00 59 1012.8
20260505222524 62 208 15.0 30.0 0.00 0.00 0.00 57 1012.7
20260505222003 63 214 18.0 32.0 0.00 0.00 0.00 56 1012.7
20260505221502 63 214 18.0 32.0 0.00 0.00 0.00 56 1012.9
20260505221003 63 208 14.0 29.0 0.00 0.00 0.00 55 1012.6
20260505220503 64 207 13.0 26.0 0.00 0.00 0.00 54 1012.6
20260505220002 65 213 14.0 25.0 0.00 0.00 0.00 53 1012.5
20260505215503 65 213 16.0 29.0 0.00 0.00 0.00 52 1012.6
20260505215003 65 212 15.0 29.0 0.00 0.00 0.00 51 1012.5
20260505214503 65 214 14.0 30.0 0.00 0.00 0.00 51 1012.4
20260505214003 66 218 14.0 32.0 0.00 0.00 0.00 49 1012.3
20260505213503 66 223 15.0 32.0 0.00 0.00 0.00 49 1012.3
20260505213003 66 226 17.0 31.0 0.00 0.00 0.00 49 1012.4
20260505212524 66 224 18.0 31.0 0.00 0.00 0.00 47 1012.4
20260505212003 66 221 19.0 31.0 0.00 0.00 0.00 47 1012.3
20260505211503 67 220 18.0 29.0 0.00 0.00 0.00 46 1012.3
20260505211003 67 219 19.0 35.0 0.00 0.00 0.00 46 1012.4
20260505210503 67 216 18.0 35.0 0.00 0.00 0.00 46 1012.3
20260505210004 68 215 17.0 31.0 0.00 0.00 0.00 45 1012.2
20260505205503 68 217 17.0 31.0 0.00 0.00 0.00 46 1012.1
20260505205003 68 218 18.0 31.0 0.00 0.00 0.00 44 1012.2
20260505204503 68 218 18.0 31.0 0.00 0.00 0.00 45 1012.2
20260505204024 68 218 17.0 29.0 0.00 0.00 0.00 44 1012.2
20260505203524 68 213 17.0 27.0 0.00 0.00 0.00 44 1012.2
20260505203024 69 213 17.0 31.0 0.00 0.00 0.00 45 1012.0
20260505202503 69 218 17.0 31.0 0.00 0.00 0.00 45 1012.3
20260505202003 69 215 18.0 29.0 0.00 0.00 0.00 45 1012.3
20260505201503 69 215 18.0 31.0 0.00 0.00 0.00 45 1012.2
20260505201024 69 220 17.0 31.0 0.00 0.00 0.00 44 1012.5
20260505200503 70 220 15.0 30.0 0.00 0.00 0.00 44 1012.1
20260505200003 70 218 15.0 29.0 0.00 0.00 0.00 45 1011.8
20260505195503 70 217 16.0 27.0 0.00 0.00 0.00 44 1011.7
20260505195003 70 220 16.0 31.0 0.00 0.00 0.00 46 1011.6
20260505194502 69 221 16.0 31.0 0.00 0.00 0.00 46 1011.7
20260505194003 69 213 17.0 28.0 0.00 0.00 0.00 47 1011.7
20260505193503 69 211 19.0 29.0 0.00 0.00 0.00 46 1011.7
20260505193003 69 214 18.0 30.0 0.00 0.00 0.00 46 1011.8
20260505192524 69 214 18.0 30.0 0.00 0.00 0.00 46 1011.5
20260505192003 70 217 19.0 34.0 0.00 0.00 0.00 45 1011.5
20260505191502 70 217 19.0 34.0 0.00 0.00 0.00 45 1011.7
20260505191003 70 210 18.0 30.0 0.00 0.00 0.00 44 1011.4
20260505190503 71 205 17.0 29.0 0.00 0.00 0.00 44 1011.5
20260505190003 71 208 17.0 30.0 0.00 0.00 0.00 45 1011.4
20260505185503 71 215 17.0 30.0 0.00 0.00 0.00 45 1011.4
20260505185003 71 220 16.0 28.0 0.00 0.00 0.00 45 1011.6
20260505184503 71 217 16.0 28.0 0.00 0.00 0.00 45 1011.5
20260505184003 71 212 16.0 27.0 0.00 0.00 0.00 48 1011.4
20260505183503 71 213 15.0 27.0 0.00 0.00 0.00 47 1011.5
20260505183003 71 215 13.0 25.0 0.00 0.00 0.00 47 1011.4
20260505182003 70 199 13.0 23.0 0.00 0.00 0.00 51 1011.4
20260505181503 70 187 13.0 25.0 0.00 0.00 0.00 51 1011.4
20260505181003 70 184 12.0 25.0 0.00 0.00 0.00 51 1011.5
20260505180503 70 186 14.0 23.0 0.00 0.00 0.00 50 1011.6
20260505180003 70 183 14.0 23.0 0.00 0.00 0.00 50 1011.7
20260505175503 70 191 12.0 24.0 0.00 0.00 0.00 51 1011.5
20260505175024 72 204 11.0 24.0 0.00 0.00 0.00 49 1011.5
20260505174503 71 213 12.0 20.0 0.00 0.00 0.00 48 1011.5
20260505174003 71 212 13.0 21.0 0.00 0.00 0.00 48 1011.5
20260505173524 71 201 13.0 21.0 0.00 0.00 0.00 48 1011.5
20260505173003 70 199 12.0 19.0 0.00 0.00 0.00 50 1011.4
20260505172503 70 206 11.0 19.0 0.00 0.00 0.00 50 1011.5
20260505172003 70 216 10.0 19.0 0.00 0.00 0.00 51 1011.6
20260505171503 70 209 11.0 19.0 0.00 0.00 0.00 53 1011.7
20260505171003 69 198 11.0 19.0 0.00 0.00 0.00 52 1011.7
20260505170503 70 206 10.0 18.0 0.00 0.00 0.00 53 1011.7
20260505170003 69 207 10.0 18.0 0.00 0.00 0.00 52 1011.7
20260505165503 68 194 10.0 16.0 0.00 0.00 0.00 54 1011.6
20260505165003 68 185 10.0 16.0 0.00 0.00 0.00 55 1011.7
20260505164524 68 191 10.0 17.0 0.00 0.00 0.00 55 1011.6
20260505164003 67 207 10.0 19.0 0.00 0.00 0.00 57 1011.6
20260505163524 67 208 11.0 19.0 0.00 0.00 0.00 58 1011.6
20260505163003 66 198 12.0 21.0 0.00 0.00 0.00 56 1011.5
20260505162503 66 194 12.0 21.0 0.00 0.00 0.00 57 1011.5
20260505162024 66 196 11.0 20.0 0.00 0.00 0.00 56 1011.4
20260505161503 66 188 12.0 20.0 0.00 0.00 0.00 57 1011.5
20260505161003 66 188 11.0 22.0 0.00 0.00 0.00 56 1011.5
20260505160503 66 194 11.0 22.0 0.00 0.00 0.00 58 1011.5
20260505153003 66 207 11.0 20.0 0.00 0.00 0.00 55 1011.5
20260505152524 66 203 11.0 20.0 0.00 0.00 0.00 56 1011.4
20260505152003 66 209 10.0 18.0 0.00 0.00 0.00 59 1011.3
20260505151503 66 214 10.0 21.0 0.00 0.00 0.00 56 1011.3
20260505151003 66 213 11.0 21.0 0.00 0.00 0.00 56 1011.4
20260505150503 65 205 12.0 21.0 0.00 0.00 0.00 56 1011.3
20260505140503 61 221 12.0 20.0 0.00 0.00 0.00 61 1011.9
20260505125003 55 239 13.0 21.0 0.00 0.00 0.00 64 1011.2
20260505124503 56 236 11.0 20.0 0.00 0.00 0.00 63 1011.3
20260505124003 55 235 10.0 20.0 0.00 0.00 0.00 66 1011.3
20260505123503 55 236 12.0 19.0 0.00 0.00 0.00 65 1011.2
20260505123003 54 233 12.0 19.0 0.00 0.00 0.00 66 1011.0
20260505122524 54 226 11.0 19.0 0.00 0.00 0.00 66 1011.1
20260505122003 54 222 11.0 20.0 0.00 0.00 0.00 66 1011.0
20260505121503 54 225 12.0 20.0 0.00 0.00 0.00 67 1011.1
20260505121004 54 227 11.0 19.0 0.00 0.00 0.00 68 1011.1
20260505120503 54 227 10.0 18.0 0.00 0.00 0.00 69 1011.0
20260505120003 54 229 9.0 16.0 0.00 0.00 0.00 69 1010.9
20260505115503 54 225 8.0 15.0 0.00 0.00 0.00 70 1011.0
20260505115003 53 221 8.0 15.0 0.00 0.00 0.00 71 1011.1
20260505114503 53 223 8.0 17.0 0.00 0.00 0.00 71 1011.1
20260505114003 52 217 7.0 17.0 0.00 0.00 0.00 72 1011.1
20260505113524 52 223 9.0 17.0 0.00 0.00 0.00 74 1011.2
20260505113003 52 233 9.0 17.0 0.00 0.00 0.00 74 1011.2
20260505112503 51 231 8.0 15.0 0.00 0.00 0.00 76 1011.2
20260505112003 51 233 8.0 14.0 0.00 0.00 0.00 75 1011.2
20260505111504 50 239 9.0 16.0 0.00 0.00 0.00 76 1011.1
20260505111024 50 236 9.0 16.0 0.00 0.00 0.00 78 1011.0
20260505110503 50 234 9.0 16.0 0.00 0.00 0.00 78 1010.8
20260505102003 46 213 6.0 10.0 0.00 0.00 0.00 84 1010.6
20260505101503 46 215 7.0 12.0 0.00 0.00 0.00 85 1010.4
20260505101003 45 212 7.0 12.0 0.00 0.00 0.00 85 1010.4
20260505100503 45 209 7.0 16.0 0.00 0.00 0.00 86 1010.4
20260505100024 45 212 7.0 16.0 0.00 0.00 0.00 86 1010.3
20260505095524 44 216 7.0 12.0 0.00 0.00 0.00 87 1010.1
20260505095003 44 215 6.0 12.0 0.00 0.00 0.00 87 1010.1
20260505094503 44 211 7.0 12.0 0.00 0.00 0.00 88 1010.1
20260505094003 43 207 7.0 12.0 0.00 0.00 0.00 88 1010.0
20260505093504 43 205 7.0 10.0 0.00 0.00 0.00 88 1009.9
20260505093003 43 206 7.0 11.0 0.00 0.00 0.00 88 1009.7
20260505092503 43 209 7.0 12.0 0.00 0.00 0.00 88 1009.9
20260505092003 43 213 8.0 12.0 0.00 0.00 0.00 88 1009.9
20260505091504 42 216 7.0 14.0 0.00 0.00 0.00 88 1009.7
20260505091003 42 218 8.0 14.0 0.00 0.00 0.00 89 1009.7
20260505090503 42 218 8.0 13.0 0.00 0.00 0.00 88 1009.6
20260505090024 43 219 7.0 11.0 0.00 0.00 0.00 88 1009.5
20260505085503 43 221 7.0 14.0 0.00 0.00 0.00 88 1009.3
20260505085024 43 222 7.0 14.0 0.00 0.00 0.00 88 1009.3
20260505084503 43 225 7.0 14.0 0.00 0.00 0.00 88 1009.2
20260505084003 43 229 8.0 14.0 0.00 0.00 0.00 87 1009.2
20260505083503 43 228 7.0 14.0 0.00 0.00 0.00 87 1008.9
20260505083003 43 228 7.0 14.0 0.00 0.00 0.00 87 1008.9
20260505082503 44 232 8.0 15.0 0.00 0.00 0.00 86 1009.0
20260505082024 44 234 8.0 15.0 0.00 0.00 0.00 86 1008.9
20260505081503 44 238 8.0 13.0 0.00 0.00 0.00 86 1008.8
20260505081003 44 240 9.0 13.0 0.00 0.00 0.00 86 1008.8
20260505080503 44 237 8.0 13.0 0.00 0.00 0.00 87 1008.8
20260505080003 43 231 7.0 12.0 0.00 0.00 0.00 87 1008.6
20260505075503 43 228 7.0 11.0 0.00 0.00 0.00 87 1008.6
20260505075003 43 226 7.0 14.0 0.00 0.00 0.00 87 1008.5
20260505074503 43 223 7.0 14.0 0.00 0.00 0.00 87 1008.5